Location: Brad
(46.1333°N, 22.7833°E)
Time: 11:57:37
(UTC+00:00)

Okean O Rocket - Pass Details

Date: 03 February 2023
Orbit: 621 x 643 km, 98.2° (Epoch: 20 March)

Event Time Altitude Azimuth Distance (km) Brightness Sun altitude
Rises 16:03:01 0° 111° (ESE) 2,920 4.5 -5.2°
Reaches altitude 10° 16:06:27 10° 82° (E) 2,024 3.5 -5.7°
Maximum altitude 16:08:14 12° 58° (ENE) 1,875 3.4 -6.0°
Drops below altitude 10° 16:10:02 10° 34° (NE) 2,035 3.8 -6.3°
Sets 16:13:29 0° 5° (N) 2,955 4.8 -6.9°
